EN

Hourly Weather Gogolev Bor

Today, 16 May, Sunday

Time Temperature Precipitation Wind Pressure Humidity
00:00 +18°C° 0.1 mm 1 mps 745 mmHg 92%
01:00 +18°C° 0 mm 1 mps 745 mmHg 92%
02:00 +16°C° 0 mm 1 mps 745 mmHg 92%
03:00 +16°C° 0 mm 1 mps 745 mmHg 92%
04:00 +18°C° 0 mm 1 mps 745 mmHg 90%
05:00 +16°C° 0 mm 0 mps 745 mmHg 88%
06:00 +17°C° 0 mm 0 mps 745 mmHg 86%
07:00 +18°C° 0 mm 0 mps 746 mmHg 79%
08:00 +20°C° 0 mm 0 mps 746 mmHg 72%
09:00 +22°C° 0 mm 0 mps 746 mmHg 66%
10:00 +23°C° 0 mm 0 mps 746 mmHg 60%
11:00 +26°C° 0 mm 1 mps 746 mmHg 55%
12:00 +27°C° 0 mm 1 mps 746 mmHg 49%
13:00 +27°C° 0.4 mm 1 mps 746 mmHg 50%
14:00 +27°C° 0.4 mm 2 mps 746 mmHg 51%
15:00 +27°C° 0.4 mm 2 mps 746 mmHg 52%
16:00 +26°C° 0.5 mm 2 mps 746 mmHg 60%
17:00 +25°C° 0.5 mm 1 mps 746 mmHg 68%
18:00 +24°C° 0.5 mm 1 mps 746 mmHg 75%
19:00 +23°C° 0.1 mm 1 mps 746 mmHg 78%
20:00 +21°C° 0.1 mm 1 mps 746 mmHg 82%
21:00 +20°C° 0.1 mm 1 mps 746 mmHg 85%
22:00 +19°C° 0.1 mm 1 mps 746 mmHg 86%
23:00 +19°C° 0.1 mm 1 mps 746 mmHg 87%

Tomorrow, 17 May, Monday

Time Temperature Precipitation Wind Pressure Humidity
00:00 +19°C° 0.1 mm 1 mps 746 mmHg 87%
01:00 +17°C° 0 mm 2 mps 746 mmHg 87%
02:00 +17°C° 0 mm 2 mps 746 mmHg 87%
03:00 +16°C° 0 mm 2 mps 746 mmHg 86%
04:00 +17°C° 0 mm 2 mps 746 mmHg 85%
05:00 +17°C° 0 mm 2 mps 746 mmHg 84%
06:00 +18°C° 0 mm 2 mps 746 mmHg 84%
07:00 +20°C° 0 mm 2 mps 746 mmHg 75%
08:00 +22°C° 0 mm 3 mps 747 mmHg 67%
09:00 +25°C° 0 mm 3 mps 747 mmHg 59%
10:00 +26°C° 0 mm 3 mps 747 mmHg 53%
11:00 +27°C° 0 mm 4 mps 747 mmHg 48%
12:00 +28°C° 0 mm 5 mps 747 mmHg 43%
13:00 +28°C° 0 mm 4 mps 747 mmHg 45%
14:00 +28°C° 0 mm 4 mps 747 mmHg 47%
15:00 +28°C° 0 mm 4 mps 747 mmHg 49%
16:00 +27°C° 0 mm 4 mps 746 mmHg 54%
17:00 +26°C° 0 mm 3 mps 746 mmHg 59%
18:00 +25°C° 0 mm 3 mps 746 mmHg 64%
19:00 +24°C° 0 mm 3 mps 746 mmHg 66%
20:00 +21°C° 0 mm 3 mps 746 mmHg 69%
21:00 +20°C° 0 mm 3 mps 746 mmHg 71%
22:00 +19°C° 0 mm 3 mps 746 mmHg 68%
23:00 +18°C° 0 mm 3 mps 746 mmHg 66%

Day after tomorrow, 18 May, Tuesday

Time Temperature Precipitation Wind Pressure Humidity
00:00 +18°C° 0 mm 3 mps 746 mmHg 64%
01:00 +18°C° 0 mm 3 mps 746 mmHg 63%
02:00 +17°C° 0 mm 3 mps 746 mmHg 62%
03:00 +17°C° 0 mm 3 mps 745 mmHg 62%
04:00 +17°C° 0 mm 3 mps 745 mmHg 63%
05:00 +17°C° 0 mm 3 mps 745 mmHg 64%
06:00 +17°C° 0 mm 3 mps 745 mmHg 66%
07:00 +19°C° 0 mm 4 mps 745 mmHg 62%
08:00 +21°C° 0 mm 4 mps 746 mmHg 59%
09:00 +22°C° 0 mm 4 mps 746 mmHg 56%
10:00 +25°C° 0 mm 5 mps 746 mmHg 52%
11:00 +26°C° 0 mm 5 mps 745 mmHg 49%
12:00 +27°C° 0 mm 5 mps 745 mmHg 45%
13:00 +28°C° 0 mm 5 mps 745 mmHg 46%
14:00 +29°C° 0 mm 5 mps 745 mmHg 47%
15:00 +29°C° 0 mm 5 mps 745 mmHg 48%
16:00 +28°C° 0 mm 5 mps 745 mmHg 51%
17:00 +27°C° 0 mm 5 mps 744 mmHg 55%
18:00 +26°C° 0 mm 5 mps 744 mmHg 59%
19:00 +25°C° 0 mm 5 mps 744 mmHg 60%
20:00 +23°C° 0 mm 5 mps 744 mmHg 61%
21:00 +21°C° 0 mm 5 mps 744 mmHg 62%
22:00 +21°C° 0 mm 5 mps 744 mmHg 60%
23:00 +21°C° 0 mm 5 mps 744 mmHg 57%

19 May, Wednesday

Time Temperature Precipitation Wind Pressure Humidity
00:00 +20°C° 0 mm 6 mps 743 mmHg 55%
01:00 +20°C° 0 mm 6 mps 743 mmHg 53%
02:00 +20°C° 0 mm 5 mps 743 mmHg 51%
03:00 +19°C° 0 mm 5 mps 743 mmHg 49%
04:00 +19°C° 0 mm 5 mps 743 mmHg 53%
05:00 +19°C° 0 mm 5 mps 743 mmHg 57%
06:00 +17°C° 0 mm 5 mps 743 mmHg 61%
07:00 +20°C° 0 mm 6 mps 743 mmHg 59%
08:00 +22°C° 0 mm 6 mps 743 mmHg 56%
09:00 +24°C° 0 mm 6 mps 742 mmHg 54%
10:00 +26°C° 0 mm 7 mps 742 mmHg 53%
11:00 +27°C° 0 mm 7 mps 742 mmHg 51%
12:00 +28°C° 0 mm 7 mps 742 mmHg 50%
13:00 +28°C° 0 mm 7 mps 742 mmHg 51%
14:00 +28°C° 0 mm 6 mps 742 mmHg 53%
15:00 +27°C° 0 mm 6 mps 742 mmHg 54%
16:00 +26°C° 0.3 mm 6 mps 742 mmHg 61%
17:00 +23°C° 0.3 mm 6 mps 742 mmHg 67%
18:00 +21°C° 0.3 mm 6 mps 742 mmHg 74%
19:00 +20°C° 0.3 mm 5 mps 742 mmHg 80%
20:00 +19°C° 0.3 mm 3 mps 742 mmHg 85%
21:00 +17°C° 0.3 mm 2 mps 742 mmHg 91%
22:00 +17°C° 0.5 mm 3 mps 742 mmHg 92%
23:00 +16°C° 0.5 mm 3 mps 742 mmHg 93%

20 May, Thursday

Time Temperature Precipitation Wind Pressure Humidity
00:00 +16°C° 0.5 mm 3 mps 742 mmHg 94%
01:00 +14°C° 0.6 mm 3 mps 742 mmHg 94%
02:00 +14°C° 0.6 mm 3 mps 742 mmHg 95%
03:00 +14°C° 0.6 mm 4 mps 742 mmHg 95%
04:00 +13°C° 0 mm 4 mps 742 mmHg 94%
05:00 +13°C° 0 mm 4 mps 742 mmHg 93%
06:00 +13°C° 0 mm 4 mps 742 mmHg 92%
07:00 +13°C° 0.2 mm 5 mps 742 mmHg 89%
08:00 +14°C° 0.2 mm 6 mps 742 mmHg 86%
09:00 +14°C° 0.2 mm 6 mps 742 mmHg 83%
10:00 +14°C° 0.2 mm 6 mps 743 mmHg 82%
11:00 +14°C° 0.2 mm 6 mps 743 mmHg 80%
12:00 +15°C° 0.2 mm 6 mps 743 mmHg 78%
13:00 +15°C° 0.3 mm 6 mps 743 mmHg 78%
14:00 +15°C° 0.3 mm 6 mps 743 mmHg 77%
15:00 +15°C° 0.3 mm 6 mps 743 mmHg 77%
16:00 +14°C° 0.2 mm 6 mps 744 mmHg 79%
17:00 +13°C° 0.2 mm 6 mps 744 mmHg 81%
18:00 +13°C° 0.2 mm 6 mps 744 mmHg 83%
19:00 +12°C° 0 mm 5 mps 744 mmHg 84%
20:00 +12°C° 0 mm 4 mps 745 mmHg 86%
21:00 +11°C° 0 mm 4 mps 745 mmHg 87%
22:00 +11°C° 0 mm 4 mps 745 mmHg 89%
23:00 +11°C° 0 mm 4 mps 745 mmHg 91%

21 May, Friday

Time Temperature Precipitation Wind Pressure Humidity
00:00 +10°C° 0 mm 4 mps 746 mmHg 93%
01:00 +10°C° 0 mm 3 mps 746 mmHg 93%
02:00 +10°C° 0 mm 3 mps 746 mmHg 93%
03:00 +10°C° 0 mm 3 mps 747 mmHg 94%
04:00 +11°C° 0 mm 3 mps 747 mmHg 92%
05:00 +11°C° 0 mm 3 mps 747 mmHg 90%
06:00 +12°C° 0 mm 3 mps 747 mmHg 87%
07:00 +14°C° 0 mm 3 mps 747 mmHg 81%
08:00 +17°C° 0 mm 3 mps 747 mmHg 74%
09:00 +18°C° 0 mm 3 mps 747 mmHg 67%
10:00 +19°C° 0 mm 4 mps 747 mmHg 68%
11:00 +19°C° 0 mm 4 mps 747 mmHg 68%
12:00 +20°C° 0 mm 4 mps 747 mmHg 69%
13:00 +21°C° 0.1 mm 5 mps 747 mmHg 67%
14:00 +22°C° 0.1 mm 6 mps 746 mmHg 64%
15:00 +23°C° 0.1 mm 6 mps 746 mmHg 61%
16:00 +23°C° 0 mm 7 mps 745 mmHg 62%
17:00 +23°C° 0 mm 7 mps 745 mmHg 64%
18:00 +22°C° 0 mm 8 mps 744 mmHg 65%
19:00 +21°C° 0.1 mm 7 mps 744 mmHg 70%
20:00 +20°C° 0.1 mm 7 mps 744 mmHg 75%
21:00 +19°C° 0.1 mm 6 mps 744 mmHg 81%
22:00 +19°C° 0.3 mm 6 mps 744 mmHg 84%
23:00 +17°C° 0.3 mm 5 mps 744 mmHg 87%
Show more